User: anonymous
Location: Unspecified
(0.0000°N, 0.0000°E)
Time: 13:02:34
(UTC+00:00)
Language:

CLOUDSAT - Orbit

View from above orbital plane
View from above orbital plane
View from above satellite
View from above satellite

Ground track
Ground track

The orbit data is extracted from the following two-line orbital elements,

1 29107U 06016A   14292.96472815  .00000569  00000-0  13643-3 0  8104
2 29107 098.2079 234.9258 0001385 079.0338 281.1029 14.57088858451003
Epoch (UTC): 19 October 2014 23:09:12
Eccentricity: 0.0001385
inclination: 98.2079°
perigee height: 701 km
apogee height: 703 km
right ascension of ascending node: 234.9258°
argument of perigee: 79.0338°
revolutions per day: 14.57088858
mean anomaly at epoch: 281.1029°
orbit number at epoch: 45100

The dashed part of the orbit path shows where the satellite is in the earth's shadow,  

DLR